TGW645 VTSP-WSSS

Flight info

Callsign TGW645
Flight time 1h 28m
Altitude 37000
Route REBED1A REBED B579 VPL Y503 RINBA Y507 MAKNA Y511 TOPOR A464 ARAMA DCT TEBUN TEBUN1A
Aircraft A20N/M-SDE2FGHIRWYZ/LB1

Departure

Time 2026-05-04 17:07
Airport Phuket International Airport (VTSP)

Arrival

Time 2026-05-04 18:36
Airport Singapore Changi Airport (WSSS)
Time Latitude Longitude Altitude Speed Heading
2026-05-04 16:35 8.10904 98.30552 27 ft 0 kts 104°
2026-05-04 17:00 8.10908 98.30534 27 ft 4 kts 104°
2026-05-04 17:00 8.10914 98.30459 27 ft 4 kts 19°
2026-05-04 17:01 8.10893 98.30453 27 ft 1 kts 14°
2026-05-04 17:04 8.10953 98.30469 27 ft 8 kts 14°
2026-05-04 17:04 8.11039 98.30421 26 ft 12 kts 269°
2026-05-04 17:05 8.11099 98.30349 29 ft 0 kts 357°
2026-05-04 17:05 8.11102 98.30349 29 ft 2 kts 357°
2026-05-04 17:06 8.11178 98.30350 26 ft 9 kts 21°
2026-05-04 17:06 8.11202 98.30404 26 ft 5 kts 87°
2026-05-04 17:07 8.11219 98.30624 27 ft 69 kts 84°
2026-05-04 17:07 8.11261 98.31045 29 ft 112 kts 84°
2026-05-04 17:07 8.11381 98.32403 145 ft 168 kts 85°
2026-05-04 17:07 8.11465 98.33542 816 ft 164 kts 85°
2026-05-04 17:08 8.11571 98.34719 1322 ft 176 kts 84°
2026-05-04 17:08 8.11856 98.37273 2369 ft 202 kts 83°
2026-05-04 17:08 8.12019 98.38775 2786 ft 227 kts 84°
2026-05-04 17:09 8.12179 98.40439 3318 ft 248 kts 85°
2026-05-04 17:09 8.12328 98.42216 3947 ft 263 kts 85°
2026-05-04 17:09 8.12484 98.44063 4988 ft 264 kts 85°
2026-05-04 17:10 8.12822 98.47814 6912 ft 272 kts 85°
2026-05-04 17:10 8.13373 98.53644 9606 ft 286 kts 85°
2026-05-04 17:11 8.13561 98.55664 10394 ft 294 kts 86°
2026-05-04 17:11 8.13315 98.57775 10806 ft 313 kts 110°
2026-05-04 17:11 8.10368 98.60933 12414 ft 325 kts 155°
2026-05-04 17:12 8.08136 98.61441 13236 ft 333 kts 175°
2026-05-04 17:12 8.03423 98.61576 14793 ft 342 kts 177°
2026-05-04 17:13 7.96164 98.61806 17023 ft 355 kts 176°
2026-05-04 17:14 7.88571 98.62083 18709 ft 381 kts 176°
2026-05-04 17:14 7.85936 98.62179 19596 ft 372 kts 176°
2026-05-04 17:14 7.80955 98.62356 21669 ft 355 kts 176°
2026-05-04 17:15 7.78517 98.62445 22586 ft 345 kts 176°
2026-05-04 17:15 7.73816 98.62858 23908 ft 338 kts 163°
2026-05-04 17:16 7.69695 98.64983 24893 ft 332 kts 139°
2026-05-04 17:16 7.64336 98.69427 26199 ft 331 kts 140°
2026-05-04 17:17 7.62571 98.70877 26597 ft 331 kts 140°
2026-05-04 17:17 7.57189 98.75299 27597 ft 336 kts 140°
2026-05-04 17:18 7.55378 98.76787 27953 ft 336 kts 140°
2026-05-04 17:18 7.51762 98.79758 28708 ft 334 kts 140°
2026-05-04 17:19 7.48158 98.82719 29256 ft 339 kts 140°
2026-05-04 17:19 7.44480 98.85739 29787 ft 343 kts 140°
2026-05-04 17:20 7.40715 98.88825 30153 ft 351 kts 140°
2026-05-04 17:20 7.36925 98.91932 30738 ft 351 kts 140°
2026-05-04 17:20 7.35052 98.93468 30971 ft 352 kts 140°
2026-05-04 17:21 7.31207 98.96619 31223 ft 363 kts 140°
2026-05-04 17:21 7.27200 98.99903 31357 ft 378 kts 140°
2026-05-04 17:22 7.23060 99.03295 31482 ft 393 kts 140°
2026-05-04 17:23 7.16488 99.08678 31677 ft 416 kts 140°
2026-05-04 17:23 7.14223 99.10531 31902 ft 419 kts 140°
2026-05-04 17:23 7.09647 99.14277 32059 ft 433 kts 140°
2026-05-04 17:24 7.07291 99.16205 32123 ft 440 kts 140°
2026-05-04 17:24 6.99987 99.22180 32302 ft 459 kts 140°
2026-05-04 17:25 6.97519 99.24198 32363 ft 465 kts 140°
2026-05-04 17:25 6.92466 99.28330 32810 ft 467 kts 140°
2026-05-04 17:26 6.87416 99.32458 33401 ft 466 kts 140°
2026-05-04 17:26 6.79693 99.38327 34199 ft 464 kts 147°
2026-05-04 17:27 6.74282 99.41820 34664 ft 463 kts 147°
2026-05-04 17:27 6.68858 99.45331 35120 ft 461 kts 147°
2026-05-04 17:28 6.63466 99.48830 35594 ft 460 kts 147°
2026-05-04 17:29 6.55433 99.54044 36303 ft 458 kts 147°
2026-05-04 17:29 6.47438 99.59231 36901 ft 456 kts 147°
2026-05-04 17:31 6.33926 99.67993 36906 ft 472 kts 147°
2026-05-04 17:32 6.20004 99.77014 36913 ft 478 kts 147°
2026-05-04 17:33 6.08789 99.84277 36904 ft 479 kts 147°
2026-05-04 17:34 5.97616 99.91510 36907 ft 480 kts 146°
2026-05-04 17:35 5.83554 100.00607 36906 ft 481 kts 147°
2026-05-04 17:36 5.78852 100.03648 36905 ft 482 kts 147°
2026-05-04 17:36 5.73230 100.07283 36909 ft 482 kts 147°
2026-05-04 17:37 5.66652 100.11535 36902 ft 482 kts 147°
2026-05-04 17:37 5.61949 100.14574 36907 ft 482 kts 147°
2026-05-04 17:38 5.56289 100.18231 36907 ft 482 kts 147°
2026-05-04 17:38 5.50660 100.21867 36902 ft 483 kts 147°
2026-05-04 17:39 5.42176 100.27346 36910 ft 482 kts 147°
2026-05-04 17:39 5.36551 100.30977 36916 ft 482 kts 147°
2026-05-04 17:40 5.30895 100.34627 36916 ft 483 kts 147°
2026-05-04 17:40 5.25276 100.38253 36913 ft 483 kts 147°
2026-05-04 17:41 5.19609 100.41910 36904 ft 483 kts 147°
2026-05-04 17:41 5.13947 100.45562 36904 ft 483 kts 147°
2026-05-04 17:42 5.08318 100.49191 36899 ft 483 kts 147°
2026-05-04 17:42 5.02645 100.52849 36896 ft 483 kts 147°
2026-05-04 17:43 4.97009 100.56482 36896 ft 484 kts 147°
2026-05-04 17:43 4.91335 100.60139 36897 ft 484 kts 147°
2026-05-04 17:44 4.85653 100.63800 36899 ft 484 kts 147°
2026-05-04 17:44 4.80002 100.67441 36900 ft 484 kts 147°
2026-05-04 17:45 4.74315 100.71103 36901 ft 484 kts 147°
2026-05-04 17:45 4.68668 100.74739 36897 ft 484 kts 147°
2026-05-04 17:46 4.62985 100.78398 36901 ft 484 kts 147°
2026-05-04 17:46 4.57312 100.82050 36905 ft 484 kts 147°
2026-05-04 17:47 4.51670 100.85681 36907 ft 484 kts 147°
2026-05-04 17:47 4.45966 100.89291 36905 ft 484 kts 150°
2026-05-04 17:48 4.39928 100.92299 36903 ft 484 kts 153°
2026-05-04 17:48 4.33874 100.95246 36908 ft 483 kts 153°
2026-05-04 17:49 4.27851 100.98182 36904 ft 483 kts 153°
2026-05-04 17:49 4.21796 101.01131 36899 ft 482 kts 153°
2026-05-04 17:50 4.15765 101.04068 36901 ft 481 kts 153°
2026-05-04 17:50 4.09774 101.06984 36901 ft 481 kts 153°
2026-05-04 17:51 4.03736 101.09923 36901 ft 481 kts 153°
2026-05-04 17:51 3.97735 101.12843 36898 ft 481 kts 153°
2026-05-04 17:52 3.91703 101.15778 36900 ft 481 kts 153°
2026-05-04 17:52 3.85706 101.18695 36899 ft 481 kts 153°
2026-05-04 17:53 3.79668 101.21632 36903 ft 481 kts 153°
2026-05-04 17:53 3.73696 101.24586 36900 ft 481 kts 151°
2026-05-04 17:54 3.67753 101.27712 36900 ft 480 kts 151°
2026-05-04 17:54 3.61856 101.30806 36895 ft 480 kts 151°
2026-05-04 17:55 3.55948 101.33886 36898 ft 480 kts 151°
2026-05-04 17:55 3.50015 101.36973 36897 ft 480 kts 151°
2026-05-04 17:56 3.44073 101.40065 36901 ft 480 kts 151°
2026-05-04 17:56 3.38170 101.43135 36907 ft 480 kts 151°
2026-05-04 17:57 3.32237 101.46222 36906 ft 480 kts 151°
2026-05-04 17:57 3.26228 101.49068 36908 ft 480 kts 154°
2026-05-04 17:58 3.20121 101.51822 36910 ft 481 kts 154°
2026-05-04 17:58 3.14013 101.54620 36913 ft 480 kts 154°
2026-05-04 17:59 3.07964 101.57410 36912 ft 480 kts 154°
2026-05-04 18:00 2.98844 101.61619 36904 ft 481 kts 154°
2026-05-04 18:00 2.92796 101.64410 36889 ft 480 kts 154°
2026-05-04 18:01 2.86722 101.67213 36887 ft 481 kts 154°
2026-05-04 18:01 2.80639 101.70019 36883 ft 481 kts 154°
2026-05-04 18:02 2.71549 101.74213 36883 ft 481 kts 154°
2026-05-04 18:02 2.65521 101.77134 36885 ft 480 kts 152°
2026-05-04 18:03 2.59557 101.80068 36886 ft 480 kts 152°
2026-05-04 18:03 2.53964 101.83691 36889 ft 478 kts 138°
2026-05-04 18:04 2.49467 101.88541 36889 ft 476 kts 125°
2026-05-04 18:05 2.43504 101.96485 36896 ft 477 kts 126°
2026-05-04 18:05 2.39506 102.01787 36906 ft 477 kts 126°
2026-05-04 18:06 2.33525 102.09724 36924 ft 477 kts 126°
2026-05-04 18:06 2.29525 102.15034 36937 ft 477 kts 126°
2026-05-04 18:07 2.25545 102.20316 36939 ft 477 kts 126°
2026-05-04 18:07 2.21542 102.25629 36939 ft 477 kts 126°
2026-05-04 18:08 2.17578 102.30890 36936 ft 476 kts 126°
2026-05-04 18:08 2.13614 102.36152 36629 ft 464 kts 126°
2026-05-04 18:09 2.09804 102.41206 35879 ft 448 kts 126°
2026-05-04 18:09 2.06035 102.46207 34218 ft 455 kts 126°
2026-05-04 18:10 2.04113 102.48757 33316 ft 459 kts 126°
2026-05-04 18:10 2.02227 102.51261 32560 ft 459 kts 126°
2026-05-04 18:10 2.00264 102.53868 31704 ft 461 kts 126°
2026-05-04 18:10 1.98344 102.56417 30858 ft 464 kts 126°
2026-05-04 18:11 1.96409 102.58987 30337 ft 458 kts 127°
2026-05-04 18:11 1.94488 102.61537 29640 ft 456 kts 127°
2026-05-04 18:11 1.92610 102.64029 29035 ft 451 kts 127°
2026-05-04 18:11 1.90726 102.66529 28418 ft 446 kts 127°
2026-05-04 18:12 1.88866 102.68998 27794 ft 442 kts 126°
2026-05-04 18:12 1.87017 102.71452 27195 ft 439 kts 126°
2026-05-04 18:12 1.85185 102.73883 26575 ft 435 kts 126°
2026-05-04 18:12 1.83389 102.76267 25940 ft 433 kts 126°
2026-05-04 18:13 1.81582 102.78665 25324 ft 431 kts 126°
2026-05-04 18:13 1.79786 102.81049 24730 ft 428 kts 126°
2026-05-04 18:13 1.76206 102.85799 23522 ft 424 kts 126°
2026-05-04 18:14 1.74436 102.88158 22875 ft 421 kts 124°
2026-05-04 18:14 1.72899 102.90583 22282 ft 415 kts 117°
2026-05-04 18:14 1.71557 102.93122 21686 ft 411 kts 117°
2026-05-04 18:15 1.68897 102.98127 20476 ft 404 kts 117°
2026-05-04 18:15 1.66282 103.03029 19665 ft 387 kts 117°
2026-05-04 18:15 1.65039 103.05357 19530 ft 372 kts 117°
2026-05-04 18:16 1.63859 103.07567 19374 ft 354 kts 117°
2026-05-04 18:16 1.62728 103.09687 19134 ft 338 kts 117°
2026-05-04 18:16 1.61632 103.11743 18633 ft 333 kts 117°
2026-05-04 18:17 1.59466 103.15805 17798 ft 329 kts 117°
2026-05-04 18:17 1.58391 103.17820 17385 ft 326 kts 117°
2026-05-04 18:17 1.56282 103.21772 16585 ft 321 kts 117°
2026-05-04 18:18 1.55233 103.23736 16184 ft 319 kts 117°
2026-05-04 18:18 1.54192 103.25687 15782 ft 317 kts 117°
2026-05-04 18:18 1.53158 103.27623 15384 ft 315 kts 117°
2026-05-04 18:18 1.52130 103.29548 14990 ft 313 kts 117°
2026-05-04 18:19 1.50089 103.33372 14196 ft 310 kts 117°
2026-05-04 18:19 1.49078 103.35265 13806 ft 309 kts 117°
2026-05-04 18:19 1.48063 103.37167 13376 ft 308 kts 117°
2026-05-04 18:20 1.47059 103.39049 12988 ft 305 kts 118°
2026-05-04 18:20 1.46254 103.40994 12596 ft 302 kts 103°
2026-05-04 18:20 1.46053 103.43069 12204 ft 299 kts 86°
2026-05-04 18:20 1.46224 103.44431 11951 ft 298 kts 82°
2026-05-04 18:21 1.46525 103.46475 11563 ft 296 kts 82°
2026-05-04 18:21 1.46816 103.48512 11175 ft 295 kts 82°
2026-05-04 18:21 1.47190 103.51179 10745 ft 290 kts 82°
2026-05-04 18:21 1.47470 103.53179 10376 ft 289 kts 82°
2026-05-04 18:22 1.47654 103.54495 10125 ft 289 kts 82°
2026-05-04 18:22 1.47932 103.56480 9738 ft 288 kts 82°
2026-05-04 18:22 1.48210 103.58469 9333 ft 287 kts 82°
2026-05-04 18:22 1.48486 103.60440 8952 ft 285 kts 82°
2026-05-04 18:23 1.48759 103.62397 8571 ft 284 kts 82°
2026-05-04 18:23 1.49032 103.64346 8192 ft 282 kts 82°
2026-05-04 18:23 1.49303 103.66287 7831 ft 280 kts 82°
2026-05-04 18:23 1.49568 103.68182 7718 ft 268 kts 82°
2026-05-04 18:24 1.49818 103.69972 7577 ft 258 kts 82°
2026-05-04 18:24 1.50038 103.71724 7397 ft 249 kts 85°
2026-05-04 18:24 1.50168 103.73456 7162 ft 252 kts 85°
2026-05-04 18:24 1.50305 103.75203 6869 ft 251 kts 85°
2026-05-04 18:25 1.50443 103.76936 6555 ft 248 kts 85°
2026-05-04 18:25 1.50581 103.78647 6244 ft 245 kts 85°
2026-05-04 18:25 1.50717 103.80339 6045 ft 245 kts 85°
2026-05-04 18:25 1.50856 103.81978 5996 ft 232 kts 81°
2026-05-04 18:26 1.51327 103.83466 5906 ft 219 kts 60°
2026-05-04 18:26 1.52124 103.84682 5874 ft 200 kts 56°
2026-05-04 18:26 1.52865 103.85803 5757 ft 186 kts 56°
2026-05-04 18:26 1.53543 103.86847 5654 ft 172 kts 57°
2026-05-04 18:27 1.54173 103.87821 5527 ft 162 kts 57°
2026-05-04 18:27 1.54777 103.88754 5299 ft 161 kts 57°
2026-05-04 18:27 1.55385 103.89691 5050 ft 160 kts 57°
2026-05-04 18:27 1.55995 103.90629 4806 ft 160 kts 56°
2026-05-04 18:28 1.56594 103.91549 4578 ft 159 kts 56°
2026-05-04 18:28 1.57196 103.92474 4325 ft 159 kts 56°
2026-05-04 18:28 1.57797 103.93398 4085 ft 158 kts 56°
2026-05-04 18:28 1.58397 103.94319 3842 ft 157 kts 56°
2026-05-04 18:29 1.58993 103.95237 3617 ft 157 kts 58°
2026-05-04 18:29 1.59272 103.96263 3343 ft 157 kts 97°
2026-05-04 18:29 1.58817 103.97228 3086 ft 156 kts 137°
2026-05-04 18:29 1.57929 103.97845 2851 ft 155 kts 147°
2026-05-04 18:30 1.56162 103.99051 2492 ft 149 kts 145°
2026-05-04 18:30 1.55294 103.99657 2494 ft 154 kts 145°
2026-05-04 18:30 1.54445 104.00250 2492 ft 143 kts 145°
2026-05-04 18:31 1.53636 104.00815 2495 ft 142 kts 145°
2026-05-04 18:31 1.52822 104.01383 2492 ft 142 kts 145°
2026-05-04 18:31 1.52012 104.01947 2496 ft 142 kts 145°
2026-05-04 18:31 1.51203 104.02509 2493 ft 142 kts 145°
2026-05-04 18:32 1.50391 104.03072 2496 ft 142 kts 146°
2026-05-04 18:32 1.49481 104.03437 2445 ft 143 kts 172°
2026-05-04 18:32 1.48496 104.03383 2278 ft 142 kts 192°
2026-05-04 18:32 1.47555 104.03091 2096 ft 141 kts 200°
2026-05-04 18:33 1.46658 104.02726 1915 ft 141 kts 203°
2026-05-04 18:33 1.45758 104.02345 1739 ft 140 kts 202°
2026-05-04 18:33 1.44864 104.01966 1558 ft 139 kts 202°
2026-05-04 18:33 1.43970 104.01587 1385 ft 139 kts 202°
2026-05-04 18:34 1.43082 104.01210 1199 ft 139 kts 202°
2026-05-04 18:34 1.42195 104.00834 1021 ft 138 kts 202°
2026-05-04 18:34 1.41320 104.00463 850 ft 138 kts 202°
2026-05-04 18:34 1.40437 104.00089 669 ft 138 kts 203°
2026-05-04 18:35 1.39553 103.99714 474 ft 137 kts 203°
2026-05-04 18:35 1.38674 103.99342 297 ft 138 kts 203°
2026-05-04 18:35 1.37799 103.98973 91 ft 135 kts 204°
2026-05-04 18:35 1.36963 103.98615 30 ft 115 kts 202°
2026-05-04 18:36 1.36410 103.98384 30 ft 57 kts 203°
2026-05-04 18:36 1.36169 103.98290 30 ft 26 kts 192°
2026-05-04 18:36 1.36036 103.98277 30 ft 15 kts 179°
2026-05-04 18:36 1.35963 103.98286 30 ft 11 kts 164°
2026-05-04 18:37 1.35929 103.98330 30 ft 7 kts 98°
2026-05-04 18:37 1.35940 103.98383 30 ft 8 kts 55°
2026-05-04 18:37 1.35991 103.98401 30 ft 9 kts 23°
2026-05-04 18:37 1.36061 103.98434 30 ft 13 kts 22°
2026-05-04 18:38 1.36109 103.98485 30 ft 11 kts 100°
2026-05-04 18:38 1.36129 103.98558 30 ft 12 kts 43°
2026-05-04 18:38 1.36215 103.98594 30 ft 15 kts 22°
2026-05-04 18:38 1.36319 103.98638 30 ft 18 kts 23°
2026-05-04 18:39 1.36389 103.98680 30 ft 11 kts 58°
2026-05-04 18:39 1.36394 103.98762 30 ft 12 kts 62°
2026-05-04 18:39 1.36451 103.98804 30 ft 10 kts 63°
2026-05-04 18:39 1.36444 103.98826 30 ft 3 kts 114°
2026-05-04 18:40 1.36430 103.98860 30 ft 7 kts 112°
2026-05-04 18:40 1.36417 103.98892 30 ft 5 kts 113°
2026-05-04 18:40 1.36414 103.98898 30 ft 0 kts 113°